Location: Arbon
(43.0005°N, 0.7472°E)
Time: 11:56:55
(UTC+00:00)

Meteor 1-31 Rocket - Pass Details

Date: 22 April 2026
Orbit: 454 x 472 km, 97.6° (Epoch: 16 May)

Event Time Altitude Azimuth Distance (km) Brightness Sun altitude
Exits shadow 19:55:37 - 173° (S) 1,890 5.2 -12.2°
Reaches altitude 10° 19:56:13 10° 174° (S) 1,635 4.9 -12.3°
Maximum altitude 19:59:43 69° 258° (WSW) 512 2.8 -12.8°
Drops below altitude 10° 20:03:14 10° 343° (NNW) 1,645 6.0 -13.4°
Sets 20:05:18 0° 345° (NNW) 2,526 7.0 -13.7°
